[[{"header":{"parameterUnit":"m.s-1","parameterCategory":1,"la1":30.2991,"la2":30.254,"lo1":-89.0895,"lo2":-89.0444,"dy":0.0017,"dx":0.0017,"nx":28,"ny":28,"refTime":"2025-09-03T09:00:00:Z","depth":0,"parameterNumber":2,"parameterNumberName":"U-component_of_WINDS"},"data":[0,0,0,0,0,0,0,0,0,0,0,0,0,0,0,0,0,0,0,0,0,0,0,0,0,0,0,0,0,0,0,0,0,0,0,0,0,0,0,0,0,0,0,0,0,0,0,0,0,0,0,0,0,0,0,0,0,0,-1.7635,-1.7636,0,-1.7745,-1.7746,-1.7747,-1.7749,-1.7747,-1.7746,-1.7745,-1.7855,-1.7859,-1.7863,0,0,0,0,0,0,0,0,0,0,0,0,0,-1.7424,-1.7428,-1.7635,-1.7636,-1.7637,-1.7744,-1.7746,-1.7747,-1.7749,-1.7747,-1.7746,-1.7744,-1.7853,-1.7858,-1.7863,0,0,0,0,0,0,0,0,0,0,0,0,0,-1.7523,-1.7429,-1.7634,-1.7651,-1.7654,-1.7744,-1.7746,-1.7748,-1.7749,-1.7747,-1.7745,-1.7743,-1.7852,-1.7858,-1.7864,-1.7944,0,0,-1.7883,-1.7886,0,0,0,0,0,0,0,0,-1.7517,-1.753,-1.7647,-1.765,-1.7653,-1.7731,-1.7712,-1.7814,-1.775,-1.7713,-1.7745,-1.7742,-1.7815,-1.7824,-1.7849,-1.795,-1.7954,-1.7884,-1.7888,-1.7891,-1.7892,0,0,0,0,0,0,0,-1.751,-1.7526,-1.7678,-1.7649,-1.7653,-1.7652,-1.7664,-1.7731,-1.7774,-1.7716,-1.7716,-1.7729,-1.7816,-1.7843,-1.7852,-1.7956,-1.7884,-1.7889,-1.7893,-1.7896,-1.8127,-1.8129,0,0,0,0,0,0,-1.75,-1.752,-1.7675,-1.7681,-1.7579,-1.7658,-1.7671,-1.7708,-1.7773,-1.7781,-1.7731,-1.7729,-1.7833,-1.7844,-1.7856,-1.7953,-1.789,-1.7896,-1.79,-1.8124,-1.8127,-1.813,0,0,0,0,0,0,-1.7496,-1.7514,-1.767,-1.7601,-1.7621,-1.7664,-1.7705,-1.7711,-1.7738,-1.7785,-1.7792,-1.7751,-1.7832,-1.7847,-1.7922,-1.7957,-1.7899,-1.7905,-1.8122,-1.8125,-1.8129,-1.8149,0,0,0,0,0,0,-1.749,-1.7513,-1.7544,-1.7602,-1.7624,-1.7736,-1.7707,-1.7715,-1.7749,-1.7748,-1.7805,-1.7813,-1.7832,-1.7913,-1.7929,-1.7965,-1.791,-1.8119,-1.8123,-1.8127,-1.8146,-1.8153,-1.816,0,0,0,0,0,-1.7482,-1.7545,-1.7546,-1.7564,-1.7665,-1.7738,-1.775,-1.7771,-1.7752,-1.7784,-1.7814,-1.7811,-1.7951,-1.7921,-1.7938,-1.7977,-1.8117,-1.8122,-1.8127,-1.8143,-1.8152,-1.816,0,0,0,0,0,0,-1.749,-1.7553,-1.7554,-1.7638,-1.7682,-1.7738,-1.7778,-1.7781,-1.7831,-1.7827,-1.7851,-1.7864,-1.7938,-1.7965,-1.793,-1.8058,-1.8031,-1.804,-1.8037,-1.8046,-1.8053,-1.8044,-1.7915,0,0,0,0,0,-1.7501,-1.7556,-1.7608,-1.7677,-1.7699,-1.7735,-1.7767,-1.778,-1.7826,-1.7845,-1.7881,-1.7926,-1.798,-1.8015,-1.8067,-1.815,-1.8162,-1.8186,-1.8192,-1.8198,-1.8205,-1.825,-1.8261,-1.8147,-1.8147,-1.8147,0,0,-1.7525,-1.7567,-1.7599,-1.7679,-1.7715,-1.777,-1.7751,-1.781,-1.7851,-1.7854,-1.7927,-1.7955,-1.8007,-1.8086,-1.8123,-1.8111,-1.8239,-1.8205,-1.8209,-1.8213,-1.8257,-1.8267,-1.8277,-1.8151,-1.815,-1.8149,0,0,-1.7597,-1.7634,-1.7695,-1.7732,-1.7787,-1.781,-1.7825,-1.788,-1.7899,-1.7973,-1.7977,-1.8025,-1.8118,-1.8155,-1.8185,-1.8271,-1.827,-1.8288,-1.8323,-1.8367,-1.8376,-1.8384,-1.8413,-1.8424,-1.8295,-1.8295,-1.8295,0,-1.7619,-1.7703,-1.7726,-1.7785,-1.782,-1.7826,-1.7888,-1.7922,-1.7991,-1.8014,-1.8,-1.8117,-1.8152,-1.824,-1.8261,-1.8286,-1.8302,-1.8281,-1.8373,-1.8381,-1.8389,-1.8417,-1.8429,-1.8297,-1.8296,-1.8296,-1.8296,0,-1.7728,-1.7786,-1.7828,-1.7896,-1.7935,-1.7995,-1.8026,-1.8063,-1.8072,-1.8097,-1.8172,-1.8215,-1.8276,-1.8298,-1.8307,-1.8387,-1.8378,-1.8368,-1.8342,-1.8401,-1.8428,-1.8439,-1.8299,-1.8298,-1.8298,-1.8298,0,0,-1.7806,-1.7885,-1.79,-1.7931,-1.7992,-1.8037,-1.8098,-1.8158,-1.8189,-1.8236,-1.8287,-1.8365,-1.8357,-1.8392,-1.8405,-1.8444,-1.8508,-1.843,-1.8431,-1.8442,-1.8597,-1.8603,-1.8615,-1.8508,-1.8511,-1.8512,-1.8593,0,-1.7883,-1.7991,-1.8013,-1.8106,-1.8159,-1.8167,-1.8219,-1.8262,-1.8287,-1.8335,-1.8362,-1.8417,-1.8403,-1.8424,-1.8462,-1.8492,-1.8539,-1.8487,-1.8554,-1.8556,-1.854,-1.863,-1.8636,-1.871,-1.8603,-1.8605,-1.8607,0,-1.7988,-1.8038,-1.8137,-1.8191,-1.8214,-1.8261,-1.8317,-1.8364,-1.8413,-1.8428,-1.8467,-1.8477,-1.8539,-1.8511,-1.8596,-1.8559,-1.8588,-1.8607,-1.8611,-1.8617,-1.8584,-1.8637,-1.8734,-1.8744,-1.8624,-1.8622,-1.8621,0,-1.8033,-1.8126,-1.8197,-1.8223,-1.8288,-1.8321,-1.8349,-1.8396,-1.8431,-1.848,-1.8503,-1.8559,-1.8589,-1.8632,-1.8656,-1.8633,-1.8739,-1.8713,-1.8752,-1.8752,-1.8773,-1.8771,-1.8874,-1.8794,-1.8794,-1.8794,-1.8793,0,-1.8116,-1.8176,-1.8218,-1.8261,-1.8328,-1.8353,-1.8418,-1.8446,-1.8488,-1.8536,-1.8546,-1.8591,-1.8621,-1.867,-1.8689,-1.8756,-1.877,-1.8783,-1.8787,-1.8782,-1.878,-1.88,-1.8795,-1.8797,-1.8796,-1.8795,-1.8795,0,-1.8178,-1.8209,-1.8286,-1.8342,-1.8357,-1.8404,-1.8451,-1.8493,-1.8518,-1.8579,-1.8595,-1.8634,-1.8693,-1.8721,-1.8794,-1.8806,-1.8882,-1.8883,-1.8865,-1.8867,-1.8904,-1.8899,-1.9023,-1.904,-1.8949,-1.895,-1.8951,0,-1.8228,-1.8274,-1.8335,-1.8369,-1.8398,-1.8452,-1.8487,-1.8514,-1.855,-1.8609,-1.8644,-1.8703,-1.8751,-1.8844,-1.8878,-1.8933,-1.8935,-1.8975,-1.8944,-1.8936,-1.8934,-1.8931,-1.8935,-1.898,-1.8981,-1.8981,-1.8982,0,-1.8314,-1.8327,-1.8378,-1.8435,-1.8478,-1.8524,-1.8569,-1.8595,-1.8629,-1.8669,-1.8729,-1.8767,-1.8841,-1.8899,-1.8956,-1.8985,-1.8989,-1.8992,-1.9004,-1.8997,-1.8985,-1.8991,-1.8879,-1.8989,-1.8988,-1.8987,-1.8987,-1.8987,-1.8371,-1.8412,-1.8461,-1.8518,-1.8554,-1.8596,-1.8638,-1.8669,-1.872,-1.8782,-1.8795,-1.8858,-1.8906,-1.8984,-1.9014,-1.9064,-1.9055,-1.9072,-1.9076,-1.908,-1.9081,-1.8978,-1.9074,-1.9074,-1.9074,-1.9074,-1.9074,0,-1.8455,-1.8488,-1.854,-1.8603,-1.8647,-1.8648,-1.8698,-1.8735,-1.8791,-1.8835,-1.8883,-1.8951,-1.9008,-1.9047,-1.9104,-1.9136,-1.9139,-1.915,-1.9147,-1.9153,-1.9086,-1.907,-1.9146,-1.9146,-1.9146,-1.9146,-1.9146,-1.9146,-1.8505,-1.8574,-1.8593,-1.868,-1.8712,-1.8774,-1.8803,-1.8841,-1.8876,-1.8953,-1.9,-1.9025,-1.9067,-1.9128,-1.9179,-1.9189,-1.9209,-1.922,-1.9229,-1.9166,-1.9158,-1.9151,-1.9135,-1.9224,-1.9224,-1.9292,-1.9293,-1.9293]},{"header":{"parameterUnit":"m.s-1","parameterCategory":1,"la1":30.2991,"la2":30.254,"lo1":-89.0895,"lo2":-89.0444,"dy":0.0017,"dx":0.0017,"nx":28,"ny":28,"refTime":"2025-09-03T09:00:00:Z","depth":0,"parameterNumber":3,"parameterNumberName":"V-component_of_WINDS"},"data":[0,0,0,0,0,0,0,0,0,0,0,0,0,0,0,0,0,0,0,0,0,0,0,0,0,0,0,0,0,0,0,0,0,0,0,0,0,0,0,0,0,0,0,0,0,0,0,0,0,0,0,0,0,0,0,0,0,0,-3.105,-3.1051,0,-3.1072,-3.1072,-3.1073,-3.102,-3.1019,-3.1017,-3.1015,-3.1035,-3.1037,-3.1039,0,0,0,0,0,0,0,0,0,0,0,0,0,-3.096,-3.0962,-3.105,-3.1051,-3.1051,-3.1072,-3.1072,-3.1073,-3.102,-3.1018,-3.1016,-3.1015,-3.1034,-3.1037,-3.1039,0,0,0,0,0,0,0,0,0,0,0,0,0,-3.0992,-3.0962,-3.105,-3.1027,-3.1026,-3.1072,-3.1072,-3.1073,-3.1021,-3.1018,-3.1016,-3.1014,-3.1034,-3.1037,-3.104,-3.1109,0,0,-3.1049,-3.105,0,0,0,0,0,0,0,0,-3.099,-3.0995,-3.103,-3.1029,-3.1027,-3.1041,-3.1048,-3.1085,-3.1022,-3.1023,-3.1015,-3.1012,-3.1039,-3.1041,-3.1051,-3.1109,-3.111,-3.1049,-3.1051,-3.1053,-3.1053,0,0,0,0,0,0,0,-3.0988,-3.0994,-3.1059,-3.1031,-3.1029,-3.1015,-3.1017,-3.1054,-3.1044,-3.1022,-3.1019,-3.1022,-3.1037,-3.1048,-3.1051,-3.1111,-3.1049,-3.1052,-3.1054,-3.1055,-3.1225,-3.1228,0,0,0,0,0,0,-3.0989,-3.0993,-3.1058,-3.106,-3.1002,-3.1019,-3.1021,-3.1039,-3.1044,-3.1042,-3.1024,-3.1019,-3.1044,-3.1047,-3.1051,-3.1131,-3.1053,-3.1055,-3.1057,-3.1223,-3.1226,-3.1229,0,0,0,0,0,0,-3.0987,-3.0996,-3.1057,-3.1025,-3.1032,-3.1023,-3.1044,-3.1041,-3.1051,-3.1045,-3.1043,-3.1037,-3.1042,-3.1047,-3.1095,-3.1131,-3.1057,-3.106,-3.122,-3.1224,-3.1227,-3.1293,0,0,0,0,0,0,-3.0985,-3.0995,-3.1022,-3.1026,-3.1034,-3.1101,-3.1046,-3.1043,-3.1057,-3.1051,-3.1057,-3.1055,-3.104,-3.109,-3.1098,-3.1134,-3.1062,-3.1216,-3.1221,-3.1226,-3.1287,-3.1298,-3.1308,0,0,0,0,0,-3.0982,-3.1039,-3.1024,-3.1032,-3.1068,-3.1104,-3.1108,-3.1091,-3.106,-3.1087,-3.1083,-3.1055,-3.1126,-3.1096,-3.1103,-3.1142,-3.1214,-3.122,-3.1226,-3.1283,-3.1296,-3.1308,0,0,0,0,0,0,-3.1039,-3.104,-3.1022,-3.1083,-3.1094,-3.1095,-3.1127,-3.1106,-3.1125,-3.1118,-3.1095,-3.1097,-3.1149,-3.115,-3.1116,-3.1208,-3.1165,-3.1173,-3.1205,-3.1218,-3.1228,-3.1227,-3.1065,0,0,0,0,0,-3.1059,-3.1089,-3.1088,-3.1141,-3.1148,-3.1137,-3.1152,-3.1138,-3.1148,-3.1152,-3.1151,-3.1161,-3.1185,-3.1202,-3.1224,-3.1287,-3.1287,-3.1317,-3.1328,-3.1336,-3.1343,-3.1375,-3.1389,-3.1248,-3.1248,-3.1248,0,0,-3.11,-3.1104,-3.1124,-3.1153,-3.1159,-3.119,-3.1141,-3.1176,-3.1198,-3.1156,-3.1201,-3.1201,-3.1211,-3.1266,-3.1291,-3.1269,-3.1382,-3.1344,-3.1351,-3.1353,-3.1383,-3.1396,-3.1408,-3.1253,-3.1252,-3.1251,0,0,-3.119,-3.1197,-3.1242,-3.1249,-3.126,-3.1253,-3.1264,-3.1268,-3.1266,-3.1311,-3.1281,-3.1306,-3.1349,-3.1357,-3.1366,-3.1459,-3.1434,-3.1467,-3.1521,-3.1553,-3.1564,-3.1573,-3.1605,-3.1617,-3.1474,-3.1474,-3.1474,0,-3.1239,-3.1285,-3.1267,-3.1304,-3.1317,-3.1282,-3.1326,-3.1334,-3.1352,-3.1361,-3.1336,-3.1389,-3.1393,-3.1449,-3.1472,-3.1481,-3.1492,-3.1466,-3.1564,-3.1573,-3.1582,-3.1612,-3.1625,-3.1478,-3.1477,-3.1477,-3.1477,0,-3.1345,-3.1377,-3.1412,-3.143,-3.1447,-3.1487,-3.1474,-3.1493,-3.1477,-3.1472,-3.1517,-3.1521,-3.1543,-3.1555,-3.154,-3.1609,-3.1595,-3.1568,-3.1524,-3.16,-3.1628,-3.1639,-3.1483,-3.1482,-3.1481,-3.148,0,0,-3.1471,-3.1479,-3.1492,-3.1499,-3.1509,-3.1533,-3.1571,-3.1593,-3.161,-3.1623,-3.1653,-3.1691,-3.1665,-3.1676,-3.1661,-3.1689,-3.1761,-3.1658,-3.1658,-3.1676,-3.1836,-3.1856,-3.187,-3.1745,-3.1747,-3.1749,-3.1835,0,-3.156,-3.1626,-3.1611,-3.1676,-3.1705,-3.1672,-3.1705,-3.1714,-3.171,-3.1733,-3.1728,-3.1754,-3.1719,-3.1725,-3.1752,-3.1747,-3.1793,-3.1741,-3.1772,-3.1773,-3.177,-3.1885,-3.1906,-3.1988,-3.1846,-3.1848,-3.1849,0,-3.1672,-3.169,-3.1758,-3.1762,-3.1774,-3.1804,-3.1822,-3.1845,-3.1854,-3.1849,-3.1861,-3.1841,-3.1877,-3.1834,-3.1883,-3.1848,-3.186,-3.186,-3.1862,-3.1864,-3.1815,-3.1889,-3.2013,-3.2025,-3.1866,-3.1865,-3.1864,0,-3.1756,-3.1797,-3.1843,-3.1851,-3.1857,-3.1879,-3.1882,-3.1888,-3.1902,-3.1918,-3.1927,-3.1947,-3.1958,-3.1973,-3.1958,-3.1928,-3.201,-3.1965,-3.2005,-3.2006,-3.2023,-3.2022,-3.2151,-3.2033,-3.2033,-3.2032,-3.2032,0,-3.1856,-3.1899,-3.1881,-3.1909,-3.1956,-3.1937,-3.1984,-3.1983,-3.1989,-3.2016,-3.1988,-3.2013,-3.1993,-3.2016,-3.2005,-3.2047,-3.2052,-3.2048,-3.2044,-3.205,-3.205,-3.2057,-3.2051,-3.2036,-3.2035,-3.2034,-3.2034,0,-3.1957,-3.1948,-3.1995,-3.1997,-3.1999,-3.2033,-3.2034,-3.2059,-3.2053,-3.2087,-3.2094,-3.2084,-3.211,-3.2097,-3.2124,-3.2116,-3.2171,-3.216,-3.2168,-3.2165,-3.2206,-3.2202,-3.2342,-3.2359,-3.2231,-3.2232,-3.2233,0,-3.2021,-3.2054,-3.2059,-3.2075,-3.2081,-3.2107,-3.2122,-3.2104,-3.212,-3.2132,-3.2156,-3.218,-3.2197,-3.224,-3.2235,-3.2255,-3.2244,-3.2292,-3.2247,-3.2251,-3.2243,-3.2241,-3.2244,-3.23,-3.2302,-3.2303,-3.2304,0,-3.2135,-3.2129,-3.2151,-3.2172,-3.219,-3.2205,-3.2217,-3.2232,-3.2214,-3.2233,-3.226,-3.2274,-3.2301,-3.2325,-3.2342,-3.2344,-3.2321,-3.2319,-3.2329,-3.2335,-3.2338,-3.2336,-3.2192,-3.2315,-3.2314,-3.2313,-3.2313,-3.2312,-3.2219,-3.2246,-3.2254,-3.228,-3.2287,-3.23,-3.2323,-3.232,-3.2343,-3.2364,-3.2352,-3.2383,-3.239,-3.2411,-3.2416,-3.2439,-3.242,-3.2435,-3.2439,-3.2443,-3.2448,-3.2335,-3.2442,-3.2442,-3.2442,-3.2441,-3.2441,0,-3.2331,-3.2335,-3.2358,-3.2377,-3.2397,-3.2374,-3.2387,-3.2404,-3.2432,-3.2441,-3.2459,-3.2489,-3.2512,-3.2508,-3.2529,-3.2548,-3.2538,-3.2554,-3.2552,-3.2552,-3.2464,-3.2453,-3.2561,-3.2561,-3.2561,-3.2561,-3.2561,-3.2561,-3.2392,-3.2436,-3.243,-3.2477,-3.248,-3.251,-3.2519,-3.253,-3.2537,-3.2572,-3.2591,-3.2589,-3.2592,-3.2613,-3.2632,-3.263,-3.2639,-3.2659,-3.2653,-3.257,-3.2559,-3.2547,-3.2536,-3.2661,-3.2661,-3.2739,-3.2739,-3.274]}]]